| time (UTC) | temp C | wind direction | speed KPH | gust KPH | rain 1hr cm | rain 24hr cm | rain mn cm | humidity % | barometer mb |
| 20260504041927 | 10 | 222 | 11.3 | 16.1 | 0.00 | 0.00 | 0.00 | 48 | 1010.5 |
| 20260504041424 | 10 | 201 | 11.3 | 14.5 | 0.00 | 0.00 | 0.00 | 48 | 1010.5 |
| 20260504040920 | 10 | 214 | 9.7 | 14.5 | 0.00 | 0.00 | 0.00 | 48 | 1010.6 |
| 20260504040418 | 10 | 213 | 9.7 | 12.9 | 0.00 | 0.00 | 0.00 | 48 | 1010.6 |
| 20260504035913 | 10 | 207 | 11.3 | 12.9 | 0.00 | 0.00 | 0.00 | 48 | 1010.4 |
| 20260504035411 | 10 | 218 | 6.4 | 11.3 | 0.00 | 0.00 | 0.00 | 47 | 1010.4 |
| 20260504034908 | 10 | 218 | 6.4 | 11.3 | 0.00 | 0.00 | 0.00 | 48 | 1010.6 |
| 20260504034405 | 10 | 226 | 11.3 | 14.5 | 0.00 | 0.00 | 0.00 | 46 | 1010.6 |
| 20260504033902 | 10 | 222 | 9.7 | 12.9 | 0.00 | 0.00 | 0.00 | 46 | 1010.5 |
| 20260504033400 | 10 | 204 | 8.0 | 11.3 | 0.00 | 0.00 | 0.00 | 46 | 1010.6 |
| 20260504032856 | 10 | 218 | 11.3 | 14.5 | 0.00 | 0.00 | 0.00 | 44 | 1010.7 |
| 20260504032353 | 10 | 212 | 9.7 | 12.9 | 0.00 | 0.00 | 0.00 | 44 | 1010.5 |
| 20260504031850 | 10 | 201 | 8.0 | 11.3 | 0.00 | 0.00 | 0.00 | 43 | 1010.5 |
| 20260504031347 | 10 | 202 | 9.7 | 11.3 | 0.00 | 0.00 | 0.00 | 43 | 1010.7 |
| 20260504030843 | 10 | 200 | 9.7 | 11.3 | 0.00 | 0.00 | 0.00 | 44 | 1010.8 |
| 20260504030341 | 10 | 199 | 6.4 | 11.3 | 0.00 | 0.00 | 0.00 | 45 | 1010.8 |
| 20260504025837 | 10 | 196 | 6.4 | 6.4 | 0.00 | 0.00 | 0.00 | 44 | 1010.7 |
| 20260504025334 | 10 | 208 | 6.4 | 6.4 | 0.00 | 0.00 | 0.00 | 45 | 1010.8 |
| 20260504024831 | 10 | 221 | 6.4 | 9.7 | 0.00 | 0.00 | 0.00 | 45 | 1010.9 |
| 20260504024327 | 10 | 226 | 6.4 | 11.3 | 0.00 | 0.00 | 0.00 | 44 | 1011.1 |
| 20260504023824 | 10 | 231 | 6.4 | 12.9 | 0.00 | 0.00 | 0.00 | 44 | 1011.2 |
| 20260504023321 | 10 | 225 | 4.8 | 11.3 | 0.00 | 0.00 | 0.00 | 43 | 1011.1 |
| 20260504022816 | 10 | 248 | 3.2 | 6.4 | 0.00 | 0.00 | 0.00 | 43 | 1011.0 |
| 20260504022314 | 10 | 220 | 6.4 | 6.4 | 0.00 | 0.00 | 0.00 | 43 | 1010.9 |
| 20260504021810 | 10 | 306 | 4.8 | 9.7 | 0.00 | 0.00 | 0.00 | 43 | 1010.9 |
| 20260504021308 | 10 | 256 | 1.6 | 4.8 | 0.00 | 0.00 | 0.00 | 44 | 1010.8 |
| 20260504020804 | 10 | 264 | 9.7 | 12.9 | 0.00 | 0.00 | 0.00 | 42 | 1010.8 |
| 20260504020301 | 10 | 283 | 3.2 | 6.4 | 0.00 | 0.00 | 0.00 | 44 | 1010.9 |
| 20260504015757 | 11 | 244 | 1.6 | 6.4 | 0.00 | 0.00 | 0.00 | 44 | 1010.9 |
| 20260504015253 | 11 | 266 | 3.2 | 9.7 | 0.00 | 0.00 | 0.00 | 43 | 1010.8 |
| 20260504014749 | 11 | 246 | 12.9 | 16.1 | 0.00 | 0.00 | 0.00 | 42 | 1011.0 |
| 20260504014246 | 11 | 350 | 3.2 | 9.7 | 0.00 | 0.00 | 0.00 | 42 | 1010.8 |
| 20260504013744 | 11 | 321 | 9.7 | 17.7 | 0.00 | 0.00 | 0.00 | 41 | 1011.0 |
| 20260504013241 | 11 | 300 | 12.9 | 20.9 | 0.00 | 0.00 | 0.00 | 42 | 1010.9 |
| 20260504012737 | 11 | 337 | 6.4 | 9.7 | 0.00 | 0.00 | 0.00 | 43 | 1011.1 |
| 20260504012235 | 11 | 302 | 8.0 | 12.9 | 0.00 | 0.00 | 0.00 | 42 | 1010.8 |
| 20260504011732 | 11 | 290 | 9.7 | 14.5 | 0.00 | 0.00 | 0.00 | 42 | 1010.9 |
| 20260504011229 | 11 | 251 | 4.8 | 12.9 | 0.00 | 0.00 | 0.00 | 42 | 1010.9 |
| 20260504010725 | 11 | 291 | 9.7 | 16.1 | 0.00 | 0.00 | 0.00 | 42 | 1010.8 |
| 20260504010220 | 11 | 283 | 16.1 | 25.7 | 0.00 | 0.00 | 0.00 | 41 | 1010.8 |
| 20260504005717 | 11 | 310 | 14.5 | 17.7 | 0.00 | 0.00 | 0.00 | 40 | 1010.9 |
| 20260504005215 | 11 | 287 | 12.9 | 20.9 | 0.00 | 0.00 | 0.00 | 41 | 1010.9 |
| 20260504004712 | 11 | 274 | 9.7 | 12.9 | 0.00 | 0.00 | 0.00 | 41 | 1010.8 |
| 20260504004209 | 11 | 291 | 14.5 | 22.5 | 0.00 | 0.00 | 0.00 | 39 | 1010.7 |
| 20260504003706 | 11 | 301 | 17.7 | 30.6 | 0.00 | 0.00 | 0.00 | 38 | 1010.8 |
| 20260504003203 | 11 | 300 | 16.1 | 22.5 | 0.00 | 0.00 | 0.00 | 41 | 1010.7 |
| 20260504002659 | 11 | 316 | 9.7 | 25.7 | 0.00 | 0.00 | 0.00 | 41 | 1010.6 |
| 20260504002157 | 11 | 298 | 11.3 | 14.5 | 0.00 | 0.00 | 0.00 | 41 | 1010.6 |
| 20260504001655 | 11 | 306 | 14.5 | 16.1 | 0.00 | 0.00 | 0.00 | 42 | 1010.3 |
| 20260504001150 | 11 | 282 | 8.0 | 12.9 | 0.00 | 0.00 | 0.00 | 44 | 1010.3 |
| 20260504000647 | 11 | 274 | 4.8 | 11.3 | 0.00 | 0.00 | 0.00 | 43 | 1010.4 |
| 20260504000145 | 11 | 300 | 4.8 | 9.7 | 0.00 | 0.00 | 0.00 | 42 | 1010.4 |
| 20260503235643 | 11 | 282 | 8.0 | 11.3 | 0.00 | 0.00 | 0.00 | 43 | 1010.0 |
| 20260503235139 | 11 | 294 | 3.2 | 4.8 | 0.00 | 0.00 | 0.00 | 44 | 1010.0 |
| 20260503234638 | 11 | 263 | 3.2 | 6.4 | 0.00 | 0.00 | 0.00 | 43 | 1010.2 |
| 20260503234135 | 11 | 253 | 6.4 | 11.3 | 0.00 | 0.00 | 0.00 | 42 | 1010.2 |
| 20260503233632 | 11 | 246 | 3.2 | 3.2 | 0.00 | 0.00 | 0.00 | 42 | 1010.3 |
| 20260503233127 | 11 | 232 | 1.6 | 3.2 | 0.00 | 0.00 | 0.00 | 43 | 1010.2 |
| 20260503232625 | 11 | 267 | 3.2 | 11.3 | 0.00 | 0.00 | 0.00 | 43 | 1010.4 |
| 20260503232122 | 11 | 246 | 3.2 | 6.4 | 0.00 | 0.00 | 0.00 | 42 | 1010.1 |
| 20260503231620 | 11 | 306 | 11.3 | 14.5 | 0.00 | 0.00 | 0.00 | 42 | 1010.1 |
| 20260503231116 | 11 | 298 | 8.0 | 17.7 | 0.00 | 0.00 | 0.00 | 41 | 1010.3 |
| 20260503230613 | 11 | 317 | 16.1 | 24.1 | 0.00 | 0.00 | 0.00 | 41 | 1010.5 |
| 20260503230110 | 11 | 317 | 16.1 | 30.6 | 0.00 | 0.00 | 0.00 | 40 | 1010.2 |
| 20260503225608 | 11 | 305 | 22.5 | 30.6 | 0.00 | 0.00 | 0.00 | 40 | 1010.3 |
| 20260503225107 | 12 | 27 | 17.7 | 30.6 | 0.00 | 0.00 | 0.00 | 40 | 1010.2 |
| 20260503224605 | 12 | 285 | 16.1 | 30.6 | 0.00 | 0.00 | 0.00 | 39 | 1010.2 |
| 20260503224103 | 12 | 300 | 16.1 | 20.9 | 0.00 | 0.00 | 0.00 | 41 | 1009.9 |
| 20260503223601 | 12 | 325 | 8.0 | 17.7 | 0.00 | 0.00 | 0.00 | 40 | 1009.9 |
| 20260503223056 | 12 | 229 | 4.8 | 12.9 | 0.00 | 0.00 | 0.00 | 42 | 1009.9 |
| 20260503222554 | 12 | 271 | 11.3 | 14.5 | 0.00 | 0.00 | 0.00 | 42 | 1010.0 |
| 20260503222052 | 12 | 215 | 4.8 | 14.5 | 0.00 | 0.00 | 0.00 | 42 | 1009.9 |
| 20260503221550 | 12 | 338 | 9.7 | 14.5 | 0.00 | 0.00 | 0.00 | 42 | 1010.1 |
| 20260503221047 | 11 | 282 | 8.0 | 14.5 | 0.00 | 0.00 | 0.00 | 42 | 1010.1 |
| 20260503220543 | 11 | 311 | 17.7 | 25.7 | 0.00 | 0.00 | 0.00 | 40 | 1010.2 |
| 20260503220040 | 11 | 22 | 8.0 | 14.5 | 0.00 | 0.00 | 0.00 | 42 | 1010.1 |
| 20260503215537 | 11 | 294 | 9.7 | 16.1 | 0.00 | 0.00 | 0.00 | 42 | 1010.0 |
| 20260503215034 | 12 | 265 | 4.8 | 22.5 | 0.00 | 0.00 | 0.00 | 41 | 1010.1 |
| 20260503214532 | 12 | 263 | 14.5 | 17.7 | 0.00 | 0.00 | 0.00 | 40 | 1010.1 |
| 20260503214029 | 12 | 302 | 4.8 | 25.7 | 0.00 | 0.00 | 0.00 | 41 | 1010.1 |
| 20260503213527 | 11 | 255 | 8.0 | 17.7 | 0.00 | 0.00 | 0.00 | 42 | 1010.1 |
| 20260503213024 | 12 | 289 | 14.5 | 20.9 | 0.00 | 0.00 | 0.00 | 40 | 1010.1 |
| 20260503212521 | 12 | 289 | 6.4 | 22.5 | 0.00 | 0.00 | 0.00 | 41 | 1009.9 |
| 20260503212018 | 12 | 311 | 11.3 | 22.5 | 0.00 | 0.00 | 0.00 | 41 | 1009.9 |
| 20260503211515 | 12 | 292 | 9.7 | 22.5 | 0.00 | 0.00 | 0.00 | 41 | 1009.7 |
| 20260503211011 | 12 | 250 | 6.4 | 16.1 | 0.00 | 0.00 | 0.00 | 42 | 1010.0 |
| 20260503210508 | 12 | 312 | 12.9 | 29.0 | 0.00 | 0.00 | 0.00 | 39 | 1010.0 |
| 20260503210003 | 13 | 302 | 6.4 | 25.7 | 0.00 | 0.00 | 0.00 | 39 | 1009.9 |
| 20260503205500 | 12 | 262 | 19.3 | 33.8 | 0.00 | 0.00 | 0.00 | 39 | 1010.0 |
| 20260503204956 | 12 | 296 | 14.5 | 27.4 | 0.00 | 0.00 | 0.00 | 40 | 1010.2 |
| 20260503204454 | 12 | 233 | 4.8 | 14.5 | 0.00 | 0.00 | 0.00 | 42 | 1010.2 |
| 20260503203950 | 12 | 9 | 9.7 | 20.9 | 0.00 | 0.00 | 0.00 | 43 | 1010.4 |
| 20260503203448 | 11 | 275 | 12.9 | 20.9 | 0.00 | 0.00 | 0.00 | 41 | 1010.4 |
| 20260503202944 | 11 | 308 | 12.9 | 22.5 | 0.00 | 0.00 | 0.00 | 41 | 1010.3 |
| 20260503202443 | 11 | 269 | 14.5 | 17.7 | 0.00 | 0.00 | 0.00 | 40 | 1010.4 |
| 20260503201941 | 11 | 318 | 4.8 | 14.5 | 0.00 | 0.00 | 0.00 | 43 | 1010.3 |
| 20260503201438 | 11 | 296 | 6.4 | 11.3 | 0.00 | 0.00 | 0.00 | 41 | 1010.5 |
| 20260503200935 | 12 | 297 | 11.3 | 16.1 | 0.00 | 0.00 | 0.00 | 41 | 1010.6 |
| 20260503200431 | 12 | 211 | 17.7 | 33.8 | 0.00 | 0.00 | 0.00 | 38 | 1010.3 |
| 20260503195928 | 12 | 308 | 9.7 | 22.5 | 0.00 | 0.00 | 0.00 | 41 | 1010.7 |
| 20260503195426 | 12 | 292 | 12.9 | 24.1 | 0.00 | 0.00 | 0.00 | 42 | 1010.7 |
| 20260503194922 | 11 | 290 | 20.9 | 24.1 | 0.00 | 0.00 | 0.00 | 43 | 1010.8 |
| 20260503194419 | 12 | 8 | 8.0 | 17.7 | 0.00 | 0.00 | 0.00 | 41 | 1010.9 |
| 20260503193914 | 12 | 310 | 6.4 | 35.4 | 0.00 | 0.00 | 0.00 | 42 | 1011.2 |
| 20260503193410 | 11 | 303 | 16.1 | 20.9 | 0.00 | 0.00 | 0.00 | 44 | 1011.1 |
| 20260503192906 | 11 | 259 | 14.5 | 17.7 | 0.00 | 0.00 | 0.00 | 43 | 1011.3 |
| 20260503192402 | 10 | 306 | 9.7 | 24.1 | 0.00 | 0.00 | 0.00 | 45 | 1011.3 |
| 20260503191858 | 11 | 299 | 11.3 | 17.7 | 0.00 | 0.00 | 0.00 | 44 | 1011.4 |
| 20260503191355 | 11 | 292 | 16.1 | 22.5 | 0.00 | 0.00 | 0.00 | 42 | 1011.4 |
| 20260503190852 | 11 | 309 | 17.7 | 25.7 | 0.00 | 0.00 | 0.00 | 44 | 1011.3 |
| 20260503190349 | 11 | 299 | 16.1 | 17.7 | 0.00 | 0.00 | 0.00 | 45 | 1011.6 |
| 20260503185846 | 11 | 43 | 6.4 | 20.9 | 0.00 | 0.00 | 0.00 | 42 | 1011.5 |
| 20260503185343 | 12 | 284 | 11.3 | 24.1 | 0.00 | 0.00 | 0.00 | 42 | 1011.5 |
| 20260503184842 | 11 | 301 | 8.0 | 22.5 | 0.00 | 0.00 | 0.00 | 41 | 1011.4 |
| 20260503184338 | 11 | 211 | 12.9 | 27.4 | 0.00 | 0.00 | 0.00 | 41 | 1011.5 |
| 20260503183834 | 10 | 296 | 17.7 | 27.4 | 0.00 | 0.00 | 0.00 | 42 | 1011.5 |
| 20260503183331 | 10 | 291 | 22.5 | 27.4 | 0.00 | 0.00 | 0.00 | 42 | 1011.4 |
| 20260503182829 | 10 | 299 | 11.3 | 17.7 | 0.00 | 0.00 | 0.00 | 43 | 1011.6 |
| 20260503182328 | 11 | 286 | 11.3 | 22.5 | 0.00 | 0.00 | 0.00 | 42 | 1011.7 |
| 20260503181825 | 11 | 273 | 14.5 | 22.5 | 0.00 | 0.00 | 0.00 | 41 | 1011.5 |
| 20260503181322 | 11 | 302 | 20.9 | 27.4 | 0.00 | 0.00 | 0.00 | 41 | 1011.5 |
| 20260503180818 | 10 | 253 | 19.3 | 25.7 | 0.00 | 0.00 | 0.00 | 42 | 1011.6 |
| 20260503180316 | 10 | 267 | 9.7 | 17.7 | 0.00 | 0.00 | 0.00 | 42 | 1011.8 |
| 20260503175812 | 10 | 303 | 9.7 | 17.7 | 0.00 | 0.00 | 0.00 | 44 | 1011.7 |
| 20260503175311 | 10 | 291 | 14.5 | 25.7 | 0.00 | 0.00 | 0.00 | 45 | 1011.7 |
| 20260503174806 | 10 | 335 | 14.5 | 22.5 | 0.00 | 0.00 | 0.00 | 44 | 1011.8 |
| 20260503174304 | 10 | 341 | 17.7 | 27.4 | 0.00 | 0.00 | 0.00 | 44 | 1011.8 |
| 20260503173759 | 10 | 219 | 9.7 | 17.7 | 0.00 | 0.00 | 0.00 | 42 | 1011.8 |
| 20260503173255 | 10 | 325 | 12.9 | 22.5 | 0.00 | 0.00 | 0.00 | 42 | 1011.9 |
| 20260503172752 | 10 | 253 | 12.9 | 29.0 | 0.00 | 0.00 | 0.00 | 41 | 1012.0 |
| 20260503172250 | 10 | 357 | 16.1 | 30.6 | 0.00 | 0.00 | 0.00 | 41 | 1011.8 |
| 20260503171746 | 10 | 307 | 22.5 | 33.8 | 0.00 | 0.00 | 0.00 | 39 | 1012.0 |
| 20260503171243 | 10 | 299 | 8.0 | 11.3 | 0.00 | 0.00 | 0.00 | 39 | 1011.8 |
| 20260503170740 | 11 | 296 | 12.9 | 17.7 | 0.00 | 0.00 | 0.00 | 39 | 1011.8 |
| 20260503170237 | 10 | 306 | 9.7 | 25.7 | 0.00 | 0.00 | 0.00 | 40 | 1011.8 |
| 20260503160159 | 8 | 264 | 6.4 | 11.3 | 0.00 | 0.00 | 0.00 | 47 | 1012.9 |
| 20260503150629 | 8 | 319 | 9.7 | 11.3 | 0.00 | 0.00 | 0.00 | 48 | 1013.4 |
| 20260503150125 | 7 | 304 | 11.3 | 20.9 | 0.00 | 0.00 | 0.00 | 47 | 1013.4 |
| 20260503131019 | 4 | 302 | 12.9 | 14.5 | 0.00 | 0.00 | 0.00 | 61 | 1013.8 |
| 20260503130516 | 4 | 312 | 19.3 | 22.5 | 0.00 | 0.00 | 0.00 | 58 | 1013.8 |
| 20260503110413 | 0 | 247 | 3.2 | 3.2 | 0.00 | 0.00 | 0.00 | 84 | 1013.6 |
| 20260503090303 | 1 | 303 | 3.2 | 4.8 | 0.00 | 0.00 | 0.00 | 81 | 1013.1 |
| 20260503081231 | 1 | 287 | 1.6 | 9.7 | 0.00 | 0.00 | 0.00 | 80 | 1013.0 |
| 20260503080726 | 1 | 288 | 3.2 | 4.8 | 0.00 | 0.00 | 0.00 | 80 | 1013.1 |
| 20260503080224 | 1 | 318 | 3.2 | 6.4 | 0.00 | 0.00 | 0.00 | 80 | 1013.1 |
| 20260503072700 | 1 | 277 | 0.0 | 3.2 | 0.00 | 0.00 | 0.00 | 80 | 1012.9 |
| 20260503072157 | 1 | 245 | 1.6 | 4.8 | 0.00 | 0.00 | 0.00 | 80 | 1013.1 |
| 20260503071654 | 1 | 286 | 1.6 | 3.2 | 0.00 | 0.00 | 0.00 | 79 | 1013.1 |
| 20260503071150 | 1 | 286 | 0.0 | 3.2 | 0.00 | 0.00 | 0.00 | 79 | 1013.0 |
| 20260503070647 | 1 | 265 | 0.0 | 0.0 | 0.00 | 0.00 | 0.00 | 78 | 1013.1 |
| 20260503070146 | 2 | 233 | 6.4 | 6.4 | 0.00 | 0.00 | 0.00 | 78 | 1013.0 |
| 20260503060109 | 1 | 275 | 1.6 | 3.2 | 0.00 | 0.00 | 0.00 | 79 | 1013.4 |
| 20260503055101 | 1 | 290 | 0.0 | 3.2 | 0.00 | 0.00 | 0.00 | 79 | 1013.3 |
| 20260503054557 | 1 | 286 | 0.0 | 3.2 | 0.00 | 0.00 | 0.00 | 78 | 1013.4 |
| 20260503054054 | 2 | 271 | 1.6 | 3.2 | 0.00 | 0.00 | 0.00 | 78 | 1013.5 |
| 20260503053552 | 2 | 299 | 1.6 | 3.2 | 0.00 | 0.00 | 0.00 | 78 | 1013.5 |
| 20260503053050 | 2 | 252 | 0.0 | 3.2 | 0.00 | 0.00 | 0.00 | 77 | 1013.6 |
| 20260503052546 | 2 | 291 | 1.6 | 4.8 | 0.00 | 0.00 | 0.00 | 77 | 1013.5 |
| 20260503052042 | 2 | 308 | 1.6 | 4.8 | 0.00 | 0.00 | 0.00 | 76 | 1013.4 |
| 20260503051538 | 2 | 304 | 6.4 | 9.7 | 0.00 | 0.00 | 0.00 | 76 | 1013.5 |
| 20260503051036 | 2 | 289 | 1.6 | 6.4 | 0.00 | 0.00 | 0.00 | 75 | 1013.5 |
| 20260503050531 | 2 | 292 | 1.6 | 3.2 | 0.00 | 0.00 | 0.00 | 75 | 1013.6 |
| 20260503050029 | 2 | 306 | 3.2 | 4.8 | 0.00 | 0.00 | 0.00 | 74 | 1013.6 |
| 20260503045526 | 2 | 312 | 1.6 | 6.4 | 0.00 | 0.00 | 0.00 | 74 | 1013.7 |
| 20260503045024 | 2 | 337 | 1.6 | 4.8 | 0.00 | 0.00 | 0.00 | 74 | 1013.9 |
| 20260503044520 | 2 | 295 | 1.6 | 4.8 | 0.00 | 0.00 | 0.00 | 74 | 1013.8 |
| 20260503044018 | 2 | 311 | 3.2 | 9.7 | 0.00 | 0.00 | 0.00 | 74 | 1013.7 |
| 20260503043514 | 2 | 307 | 6.4 | 6.4 | 0.00 | 0.00 | 0.00 | 73 | 1013.8 |
| 20260503043010 | 2 | 320 | 3.2 | 12.9 | 0.00 | 0.00 | 0.00 | 73 | 1014.0 |
| 20260503042507 | 2 | 308 | 4.8 | 4.8 | 0.00 | 0.00 | 0.00 | 74 | 1014.0 |